| time (UTC) | temp F | wind direction | speed MPH | gust MPH | rain 1hr in | rain 24hr in | rain mn in | humidity % | barometer mb |
| 20260505223954 | 79 | 246 | 3.0 | 10.0 | 0.00 | 0.00 | 0.00 | 27 | 1007.5 |
| 20260505223651 | 80 | 188 | 2.0 | 10.0 | 0.00 | 0.00 | 0.00 | 27 | 1007.4 |
| 20260505223342 | 80 | 96 | 2.0 | 11.0 | 0.00 | 0.00 | 0.00 | 26 | 1007.3 |
| 20260505223041 | 80 | 231 | 2.0 | 11.0 | 0.00 | 0.00 | 0.00 | 26 | 1007.3 |
| 20260505221903 | 81 | 226 | 3.0 | 11.0 | 0.00 | 0.00 | 0.00 | 25 | 1007.4 |
| 20260505221553 | 81 | 222 | 3.0 | 11.0 | 0.00 | 0.00 | 0.00 | 25 | 1007.4 |
| 20260505221243 | 81 | 205 | 3.0 | 11.0 | 0.00 | 0.00 | 0.00 | 24 | 1007.3 |
| 20260505220948 | 81 | 217 | 3.0 | 11.0 | 0.00 | 0.00 | 0.00 | 23 | 1007.5 |
| 20260505220220 | 81 | 195 | 4.0 | 15.0 | 0.00 | 0.00 | 0.00 | 21 | 1007.5 |
| 20260505215923 | 82 | 254 | 5.0 | 15.0 | 0.00 | 0.00 | 0.00 | 22 | 1007.4 |
| 20260505215159 | 82 | 221 | 3.0 | 15.0 | 0.00 | 0.00 | 0.00 | 26 | 1007.6 |
| 20260505214847 | 83 | 166 | 3.0 | 15.0 | 0.00 | 0.00 | 0.00 | 25 | 1007.5 |
| 20260505214544 | 83 | 193 | 3.0 | 15.0 | 0.00 | 0.00 | 0.00 | 22 | 1007.5 |
| 20260505214242 | 83 | 15 | 3.0 | 8.0 | 0.00 | 0.00 | 0.00 | 22 | 1007.5 |
| 20260505213931 | 83 | 227 | 4.0 | 17.0 | 0.00 | 0.00 | 0.00 | 20 | 1007.4 |
| 20260505213617 | 83 | 216 | 4.0 | 17.0 | 0.00 | 0.00 | 0.00 | 22 | 1007.5 |
| 20260505213319 | 83 | 244 | 4.0 | 17.0 | 0.00 | 0.00 | 0.00 | 23 | 1007.5 |
| 20260505213010 | 83 | 126 | 5.0 | 17.0 | 0.00 | 0.00 | 0.00 | 23 | 1007.4 |
| 20260505212714 | 83 | 220 | 5.0 | 17.0 | 0.00 | 0.00 | 0.00 | 23 | 1007.3 |
| 20260505212405 | 83 | 184 | 5.0 | 17.0 | 0.00 | 0.00 | 0.00 | 22 | 1007.4 |
| 20260505212057 | 83 | 226 | 5.0 | 15.0 | 0.00 | 0.00 | 0.00 | 23 | 1007.4 |
| 20260505211756 | 83 | 204 | 5.0 | 15.0 | 0.00 | 0.00 | 0.00 | 24 | 1007.5 |
| 20260505211455 | 83 | 237 | 5.0 | 15.0 | 0.00 | 0.00 | 0.00 | 22 | 1007.4 |
| 20260505211142 | 83 | 173 | 4.0 | 15.0 | 0.00 | 0.00 | 0.00 | 24 | 1007.3 |
| 20260505210837 | 82 | 223 | 3.0 | 15.0 | 0.00 | 0.00 | 0.00 | 23 | 1007.2 |
| 20260505210534 | 82 | 119 | 3.0 | 15.0 | 0.00 | 0.00 | 0.00 | 23 | 1007.3 |
| 20260505210226 | 82 | 255 | 3.0 | 12.0 | 0.00 | 0.00 | 0.00 | 28 | 1007.2 |
| 20260505205452 | 83 | 181 | 5.0 | 14.0 | 0.00 | 0.00 | 0.00 | 22 | 1007.3 |
| 20260505205147 | 83 | 202 | 5.0 | 14.0 | 0.00 | 0.00 | 0.00 | 22 | 1007.3 |
| 20260505204849 | 83 | 215 | 6.0 | 14.0 | 0.00 | 0.00 | 0.00 | 22 | 1007.4 |
| 20260505204547 | 83 | 82 | 5.0 | 15.0 | 0.00 | 0.00 | 0.00 | 22 | 1007.3 |
| 20260505204251 | 83 | 219 | 4.0 | 15.0 | 0.00 | 0.00 | 0.00 | 21 | 1007.2 |
| 20260505203938 | 84 | 189 | 3.0 | 15.0 | 0.00 | 0.00 | 0.00 | 21 | 1007.2 |
| 20260505203212 | 83 | 182 | 5.0 | 15.0 | 0.00 | 0.00 | 0.00 | 20 | 1007.5 |
| 20260505202913 | 83 | 240 | 5.0 | 15.0 | 0.00 | 0.00 | 0.00 | 21 | 1007.4 |
| 20260505202613 | 83 | 173 | 4.0 | 16.0 | 0.00 | 0.00 | 0.00 | 21 | 1007.4 |
| 20260505201438 | 84 | 163 | 5.0 | 19.0 | 0.00 | 0.00 | 0.00 | 21 | 1007.3 |
| 20260505201126 | 83 | 221 | 5.0 | 19.0 | 0.00 | 0.00 | 0.00 | 24 | 1007.2 |
| 20260505200825 | 83 | 227 | 5.0 | 19.0 | 0.00 | 0.00 | 0.00 | 22 | 1007.3 |
| 20260505200519 | 83 | 140 | 7.0 | 19.0 | 0.00 | 0.00 | 0.00 | 22 | 1007.3 |
| 20260505200207 | 84 | 215 | 5.0 | 19.0 | 0.00 | 0.00 | 0.00 | 24 | 1007.4 |
| 20260505195902 | 84 | 197 | 6.0 | 19.0 | 0.00 | 0.00 | 0.00 | 21 | 1007.5 |
| 20260505195603 | 84 | 216 | 4.0 | 17.0 | 0.00 | 0.00 | 0.00 | 23 | 1007.7 |
| 20260505195305 | 83 | 245 | 5.0 | 15.0 | 0.00 | 0.00 | 0.00 | 22 | 1007.8 |
| 20260505195001 | 84 | 204 | 5.0 | 16.0 | 0.00 | 0.00 | 0.00 | 22 | 1007.8 |
| 20260505194650 | 84 | 190 | 4.0 | 16.0 | 0.00 | 0.00 | 0.00 | 22 | 1007.8 |
| 20260505194338 | 84 | 213 | 4.0 | 16.0 | 0.00 | 0.00 | 0.00 | 20 | 1007.9 |
| 20260505194029 | 83 | 171 | 5.0 | 16.0 | 0.00 | 0.00 | 0.00 | 20 | 1007.8 |
| 20260505193720 | 83 | 267 | 5.0 | 16.0 | 0.00 | 0.00 | 0.00 | 22 | 1007.9 |
| 20260505193416 | 83 | 269 | 5.0 | 16.0 | 0.00 | 0.00 | 0.00 | 23 | 1007.8 |
| 20260505193110 | 83 | 186 | 4.0 | 16.0 | 0.00 | 0.00 | 0.00 | 22 | 1007.8 |
| 20260505192811 | 83 | 221 | 4.0 | 13.0 | 0.00 | 0.00 | 0.00 | 21 | 1007.9 |
| 20260505192506 | 83 | 295 | 4.0 | 15.0 | 0.00 | 0.00 | 0.00 | 21 | 1007.8 |
| 20260505192207 | 83 | 189 | 5.0 | 15.0 | 0.00 | 0.00 | 0.00 | 22 | 1008.0 |
| 20260505191901 | 83 | 279 | 5.0 | 15.0 | 0.00 | 0.00 | 0.00 | 25 | 1008.0 |
| 20260505191557 | 83 | 144 | 6.0 | 16.0 | 0.00 | 0.00 | 0.00 | 22 | 1008.1 |
| 20260505191250 | 84 | 208 | 5.0 | 16.0 | 0.00 | 0.00 | 0.00 | 24 | 1008.0 |
| 20260505190944 | 83 | 250 | 5.0 | 16.0 | 0.00 | 0.00 | 0.00 | 22 | 1008.0 |
| 20260505190642 | 84 | 193 | 5.0 | 16.0 | 0.00 | 0.00 | 0.00 | 22 | 1008.1 |
| 20260505190337 | 84 | 185 | 5.0 | 16.0 | 0.00 | 0.00 | 0.00 | 23 | 1008.1 |
| 20260505190023 | 83 | 207 | 6.0 | 16.0 | 0.00 | 0.00 | 0.00 | 22 | 1008.2 |
| 20260505185718 | 83 | 225 | 6.0 | 16.0 | 0.00 | 0.00 | 0.00 | 22 | 1008.2 |
| 20260505185000 | 83 | 219 | 5.0 | 14.0 | 0.00 | 0.00 | 0.00 | 23 | 1008.4 |
| 20260505184650 | 83 | 264 | 4.0 | 11.0 | 0.00 | 0.00 | 0.00 | 25 | 1008.5 |
| 20260505183924 | 83 | 200 | 3.0 | 17.0 | 0.00 | 0.00 | 0.00 | 22 | 1008.5 |
| 20260505183612 | 84 | 146 | 4.0 | 17.0 | 0.00 | 0.00 | 0.00 | 23 | 1008.6 |
| 20260505182424 | 83 | 259 | 4.0 | 15.0 | 0.00 | 0.00 | 0.00 | 24 | 1008.7 |
| 20260505182117 | 83 | 167 | 4.0 | 15.0 | 0.00 | 0.00 | 0.00 | 22 | 1008.7 |
| 20260505181810 | 84 | 200 | 5.0 | 15.0 | 0.00 | 0.00 | 0.00 | 21 | 1008.8 |
| 20260505181513 | 83 | 194 | 5.0 | 15.0 | 0.00 | 0.00 | 0.00 | 26 | 1008.7 |
| 20260505181215 | 83 | 219 | 6.0 | 15.0 | 0.00 | 0.00 | 0.00 | 23 | 1008.8 |
| 20260505180902 | 83 | 236 | 5.0 | 13.0 | 0.00 | 0.00 | 0.00 | 22 | 1008.9 |
| 20260505180603 | 83 | 225 | 5.0 | 13.0 | 0.00 | 0.00 | 0.00 | 24 | 1008.9 |
| 20260505175827 | 83 | 193 | 5.0 | 13.0 | 0.00 | 0.00 | 0.00 | 23 | 1009.0 |
| 20260505175519 | 83 | 287 | 4.0 | 13.0 | 0.00 | 0.00 | 0.00 | 24 | 1008.9 |
| 20260505175219 | 83 | 335 | 5.0 | 13.0 | 0.00 | 0.00 | 0.00 | 23 | 1008.9 |
| 20260505174907 | 83 | 23 | 4.0 | 11.0 | 0.00 | 0.00 | 0.00 | 26 | 1009.2 |
| 20260505174607 | 82 | 219 | 4.0 | 13.0 | 0.00 | 0.00 | 0.00 | 27 | 1008.9 |
| 20260505173849 | 82 | 195 | 5.0 | 13.0 | 0.00 | 0.00 | 0.00 | 20 | 1009.0 |
| 20260505173124 | 82 | 164 | 5.0 | 17.0 | 0.00 | 0.00 | 0.00 | 26 | 1009.1 |
| 20260505172828 | 82 | 146 | 5.0 | 17.0 | 0.00 | 0.00 | 0.00 | 25 | 1009.2 |
| 20260505172523 | 82 | 158 | 6.0 | 25.0 | 0.00 | 0.00 | 0.00 | 24 | 1009.1 |
| 20260505172220 | 81 | 227 | 5.0 | 25.0 | 0.00 | 0.00 | 0.00 | 23 | 1009.3 |
| 20260505171914 | 81 | 355 | 5.0 | 25.0 | 0.00 | 0.00 | 0.00 | 24 | 1009.2 |
| 20260505171611 | 82 | 236 | 6.0 | 25.0 | 0.00 | 0.00 | 0.00 | 23 | 1009.2 |
| 20260505171306 | 82 | 180 | 5.0 | 25.0 | 0.00 | 0.00 | 0.00 | 22 | 1009.4 |
| 20260505170536 | 83 | 228 | 4.0 | 20.0 | 0.00 | 0.00 | 0.00 | 22 | 1009.5 |
| 20260505170230 | 83 | 195 | 4.0 | 20.0 | 0.00 | 0.00 | 0.00 | 24 | 1009.4 |
| 20260505165925 | 83 | 209 | 5.0 | 20.0 | 0.00 | 0.00 | 0.00 | 26 | 1009.4 |
| 20260505165616 | 82 | 217 | 6.0 | 20.0 | 0.00 | 0.00 | 0.00 | 24 | 1009.4 |
| 20260505164853 | 82 | 228 | 6.0 | 19.0 | 0.00 | 0.00 | 0.00 | 23 | 1009.7 |
| 20260505164552 | 82 | 213 | 6.0 | 15.0 | 0.00 | 0.00 | 0.00 | 25 | 1009.7 |
| 20260505164245 | 82 | 164 | 6.0 | 15.0 | 0.00 | 0.00 | 0.00 | 24 | 1009.7 |
| 20260505163950 | 82 | 238 | 5.0 | 14.0 | 0.00 | 0.00 | 0.00 | 25 | 1009.8 |
| 20260505163644 | 82 | 229 | 4.0 | 14.0 | 0.00 | 0.00 | 0.00 | 25 | 1009.8 |
| 20260505163346 | 81 | 157 | 5.0 | 14.0 | 0.00 | 0.00 | 0.00 | 26 | 1009.8 |
| 20260505162629 | 81 | 254 | 6.0 | 26.0 | 0.00 | 0.00 | 0.00 | 28 | 1010.0 |
| 20260505162325 | 81 | 244 | 5.0 | 26.0 | 0.00 | 0.00 | 0.00 | 28 | 1010.0 |
| 20260505162016 | 81 | 123 | 4.0 | 26.0 | 0.00 | 0.00 | 0.00 | 29 | 1010.1 |
| 20260505161710 | 80 | 326 | 4.0 | 26.0 | 0.00 | 0.00 | 0.00 | 29 | 1010.2 |
| 20260505161410 | 80 | 246 | 5.0 | 26.0 | 0.00 | 0.00 | 0.00 | 30 | 1010.3 |
| 20260505161111 | 80 | 191 | 5.0 | 26.0 | 0.00 | 0.00 | 0.00 | 27 | 1010.6 |
| 20260505160813 | 80 | 232 | 6.0 | 16.0 | 0.00 | 0.00 | 0.00 | 29 | 1010.5 |
| 20260505160513 | 80 | 228 | 5.0 | 16.0 | 0.00 | 0.00 | 0.00 | 29 | 1010.4 |
| 20260505160200 | 80 | 304 | 5.0 | 16.0 | 0.00 | 0.00 | 0.00 | 28 | 1010.5 |
| 20260505153337 | 78 | 242 | 5.0 | 18.0 | 0.00 | 0.00 | 0.00 | 29 | 1010.4 |
| 20260505153041 | 78 | 275 | 5.0 | 17.0 | 0.00 | 0.00 | 0.00 | 30 | 1010.4 |
| 20260505152728 | 78 | 232 | 5.0 | 17.0 | 0.00 | 0.00 | 0.00 | 31 | 1010.4 |
| 20260505152419 | 78 | 239 | 4.0 | 14.0 | 0.00 | 0.00 | 0.00 | 31 | 1010.4 |
| 20260505151701 | 78 | 174 | 4.0 | 14.0 | 0.00 | 0.00 | 0.00 | 33 | 1010.4 |
| 20260505151400 | 77 | 227 | 3.0 | 14.0 | 0.00 | 0.00 | 0.00 | 31 | 1010.5 |
| 20260505151049 | 77 | 166 | 3.0 | 14.0 | 0.00 | 0.00 | 0.00 | 33 | 1010.5 |
| 20260505150742 | 77 | 227 | 3.0 | 14.0 | 0.00 | 0.00 | 0.00 | 32 | 1010.6 |
| 20260505150429 | 77 | 65 | 4.0 | 14.0 | 0.00 | 0.00 | 0.00 | 33 | 1010.5 |
| 20260505150122 | 77 | 312 | 4.0 | 14.0 | 0.00 | 0.00 | 0.00 | 32 | 1010.5 |
| 20260505140456 | 71 | 288 | 0.0 | 2.0 | 0.00 | 0.00 | 0.00 | 44 | 1010.9 |
| 20260505140150 | 71 | 318 | 0.0 | 2.0 | 0.00 | 0.00 | 0.00 | 44 | 1010.9 |
| 20260505130207 | 67 | 61 | 0.0 | 2.0 | 0.00 | 0.00 | 0.00 | 47 | 1011.3 |
| 20260505124940 | 66 | 138 | 0.0 | 2.0 | 0.00 | 0.00 | 0.00 | 49 | 1011.5 |
| 20260505124628 | 66 | 24 | 0.0 | 2.0 | 0.00 | 0.00 | 0.00 | 49 | 1011.6 |
| 20260505123907 | 65 | 28 | 1.0 | 2.0 | 0.00 | 0.00 | 0.00 | 51 | 1011.5 |
| 20260505123606 | 65 | 46 | 1.0 | 2.0 | 0.00 | 0.00 | 0.00 | 51 | 1011.5 |
| 20260505123257 | 64 | 28 | 1.0 | 4.0 | 0.00 | 0.00 | 0.00 | 52 | 1011.6 |
| 20260505122950 | 64 | 304 | 0.0 | 4.0 | 0.00 | 0.00 | 0.00 | 52 | 1011.5 |
| 20260505122647 | 64 | 302 | 0.0 | 4.0 | 0.00 | 0.00 | 0.00 | 52 | 1011.5 |
| 20260505122334 | 64 | 272 | 1.0 | 4.0 | 0.00 | 0.00 | 0.00 | 51 | 1011.6 |
| 20260505122033 | 64 | 138 | 1.0 | 4.0 | 0.00 | 0.00 | 0.00 | 51 | 1011.5 |
| 20260505121720 | 64 | 207 | 1.0 | 4.0 | 0.00 | 0.00 | 0.00 | 51 | 1011.5 |
| 20260505121424 | 64 | 311 | 1.0 | 4.0 | 0.00 | 0.00 | 0.00 | 52 | 1011.6 |
| 20260505121113 | 63 | 325 | 1.0 | 3.0 | 0.00 | 0.00 | 0.00 | 53 | 1011.6 |
| 20260505120355 | 62 | 292 | 1.0 | 3.0 | 0.00 | 0.00 | 0.00 | 54 | 1011.5 |
| 20260505120044 | 62 | 325 | 0.0 | 3.0 | 0.00 | 0.00 | 0.00 | 54 | 1011.5 |
| 20260505115731 | 62 | 313 | 0.0 | 3.0 | 0.00 | 0.00 | 0.00 | 55 | 1011.5 |
| 20260505115430 | 61 | 284 | 0.0 | 3.0 | 0.00 | 0.00 | 0.00 | 56 | 1011.5 |
| 20260505115119 | 61 | 275 | 0.0 | 3.0 | 0.00 | 0.00 | 0.00 | 57 | 1011.4 |
| 20260505114820 | 60 | 216 | 0.0 | 1.0 | 0.00 | 0.00 | 0.00 | 59 | 1011.3 |
| 20260505114511 | 59 | 320 | 0.0 | 1.0 | 0.00 | 0.00 | 0.00 | 58 | 1011.3 |
| 20260505114208 | 59 | 98 | 0.0 | 1.0 | 0.00 | 0.00 | 0.00 | 59 | 1011.4 |
| 20260505113909 | 58 | 164 | 0.0 | 0.0 | 0.00 | 0.00 | 0.00 | 60 | 1011.2 |
| 20260505113600 | 58 | 164 | 0.0 | 1.0 | 0.00 | 0.00 | 0.00 | 60 | 1011.3 |
| 20260505112840 | 57 | 305 | 0.0 | 0.0 | 0.00 | 0.00 | 0.00 | 62 | 1011.2 |
| 20260505112536 | 56 | 305 | 0.0 | 1.0 | 0.00 | 0.00 | 0.00 | 63 | 1011.2 |
| 20260505112223 | 56 | 305 | 0.0 | 0.0 | 0.00 | 0.00 | 0.00 | 63 | 1011.1 |
| 20260505111916 | 56 | 305 | 0.0 | 0.0 | 0.00 | 0.00 | 0.00 | 63 | 1011.1 |
| 20260505111617 | 56 | 305 | 0.0 | 0.0 | 0.00 | 0.00 | 0.00 | 63 | 1011.0 |
| 20260505111307 | 55 | 205 | 0.0 | 0.0 | 0.00 | 0.00 | 0.00 | 64 | 1011.0 |
| 20260505110957 | 55 | 202 | 0.0 | 1.0 | 0.00 | 0.00 | 0.00 | 64 | 1011.0 |
| 20260505110651 | 55 | 318 | 0.0 | 1.0 | 0.00 | 0.00 | 0.00 | 66 | 1011.0 |
| 20260505110346 | 54 | 190 | 0.0 | 0.0 | 0.00 | 0.00 | 0.00 | 66 | 1011.0 |
| 20260505101825 | 51 | 96 | 0.0 | 0.0 | 0.00 | 0.00 | 0.00 | 65 | 1010.8 |
| 20260505101526 | 51 | 96 | 0.0 | 0.0 | 0.00 | 0.00 | 0.00 | 65 | 1010.7 |
| 20260505101215 | 52 | 96 | 0.0 | 0.0 | 0.00 | 0.00 | 0.00 | 65 | 1010.7 |
| 20260505100456 | 52 | 94 | 0.0 | 1.0 | 0.00 | 0.00 | 0.00 | 66 | 1010.6 |
| 20260505100154 | 51 | 136 | 0.0 | 0.0 | 0.00 | 0.00 | 0.00 | 65 | 1010.8 |
| 20260505095852 | 51 | 138 | 0.0 | 0.0 | 0.00 | 0.00 | 0.00 | 65 | 1010.7 |
| 20260505095541 | 51 | 144 | 0.0 | 0.0 | 0.00 | 0.00 | 0.00 | 65 | 1010.6 |
| 20260505093949 | 52 | 196 | 0.0 | 0.0 | 0.00 | 0.00 | 0.00 | 65 | 1010.3 |
| 20260505093640 | 52 | 196 | 0.0 | 0.0 | 0.00 | 0.00 | 0.00 | 65 | 1010.4 |
| 20260505093332 | 52 | 196 | 0.0 | 0.0 | 0.00 | 0.00 | 0.00 | 65 | 1010.3 |
| 20260505093017 | 52 | 196 | 0.0 | 0.0 | 0.00 | 0.00 | 0.00 | 65 | 1010.3 |
| 20260505092717 | 52 | 191 | 0.0 | 0.0 | 0.00 | 0.00 | 0.00 | 65 | 1010.3 |
| 20260505092412 | 52 | 173 | 0.0 | 0.0 | 0.00 | 0.00 | 0.00 | 65 | 1010.2 |
| 20260505092101 | 52 | 180 | 0.0 | 0.0 | 0.00 | 0.00 | 0.00 | 65 | 1010.3 |
| 20260505091754 | 52 | 180 | 0.0 | 0.0 | 0.00 | 0.00 | 0.00 | 65 | 1010.4 |
| 20260505091033 | 52 | 198 | 0.0 | 0.0 | 0.00 | 0.00 | 0.00 | 65 | 1010.5 |
| 20260505090737 | 52 | 198 | 0.0 | 0.0 | 0.00 | 0.00 | 0.00 | 65 | 1010.3 |
| 20260505090429 | 52 | 198 | 0.0 | 0.0 | 0.00 | 0.00 | 0.00 | 65 | 1010.3 |
| 20260505090125 | 52 | 198 | 0.0 | 0.0 | 0.00 | 0.00 | 0.00 | 64 | 1010.4 |
| 20260505085405 | 52 | 198 | 0.0 | 0.0 | 0.00 | 0.00 | 0.00 | 64 | 1010.4 |
| 20260505085105 | 53 | 198 | 0.0 | 0.0 | 0.00 | 0.00 | 0.00 | 64 | 1010.5 |
| 20260505084342 | 53 | 198 | 0.0 | 0.0 | 0.00 | 0.00 | 0.00 | 64 | 1010.4 |
| 20260505084029 | 53 | 198 | 0.0 | 0.0 | 0.00 | 0.00 | 0.00 | 64 | 1010.5 |
| 20260505083722 | 53 | 198 | 0.0 | 0.0 | 0.00 | 0.00 | 0.00 | 64 | 1010.4 |
| 20260505083411 | 53 | 198 | 0.0 | 0.0 | 0.00 | 0.00 | 0.00 | 64 | 1010.4 |
| 20260505083112 | 53 | 198 | 0.0 | 0.0 | 0.00 | 0.00 | 0.00 | 64 | 1010.4 |
| 20260505082813 | 53 | 205 | 0.0 | 0.0 | 0.00 | 0.00 | 0.00 | 64 | 1010.4 |
| 20260505082100 | 54 | 257 | 0.0 | 0.0 | 0.00 | 0.00 | 0.00 | 64 | 1010.2 |
| 20260505081751 | 54 | 257 | 0.0 | 0.0 | 0.00 | 0.00 | 0.00 | 63 | 1010.2 |
| 20260505081450 | 54 | 257 | 0.0 | 0.0 | 0.00 | 0.00 | 0.00 | 63 | 1010.2 |
| 20260505081143 | 54 | 257 | 0.0 | 0.0 | 0.00 | 0.00 | 0.00 | 63 | 1010.2 |
| 20260505080844 | 54 | 257 | 0.0 | 0.0 | 0.00 | 0.00 | 0.00 | 62 | 1010.3 |
| 20260505080530 | 54 | 257 | 0.0 | 0.0 | 0.00 | 0.00 | 0.00 | 63 | 1010.4 |
| 20260505075806 | 55 | 257 | 0.0 | 0.0 | 0.00 | 0.00 | 0.00 | 62 | 1010.2 |
| 20260505075455 | 55 | 257 | 0.0 | 0.0 | 0.00 | 0.00 | 0.00 | 62 | 1010.1 |
| 20260505075143 | 55 | 257 | 0.0 | 0.0 | 0.00 | 0.00 | 0.00 | 62 | 1010.2 |
| 20260505074839 | 55 | 257 | 0.0 | 0.0 | 0.00 | 0.00 | 0.00 | 62 | 1010.1 |
| 20260505074117 | 55 | 257 | 0.0 | 0.0 | 0.00 | 0.00 | 0.00 | 61 | 1010.1 |
| 20260505073809 | 56 | 257 | 0.0 | 0.0 | 0.00 | 0.00 | 0.00 | 62 | 1010.1 |
| 20260505073458 | 56 | 257 | 0.0 | 0.0 | 0.00 | 0.00 | 0.00 | 61 | 1010.1 |
| 20260505073148 | 56 | 258 | 0.0 | 0.0 | 0.00 | 0.00 | 0.00 | 61 | 1010.0 |
| 20260505072840 | 56 | 339 | 0.0 | 0.0 | 0.00 | 0.00 | 0.00 | 61 | 1010.1 |
| 20260505072536 | 56 | 339 | 0.0 | 0.0 | 0.00 | 0.00 | 0.00 | 61 | 1010.0 |
| 20260505071757 | 56 | 342 | 0.0 | 0.0 | 0.00 | 0.00 | 0.00 | 60 | 1010.1 |
| 20260505071451 | 57 | 342 | 0.0 | 0.0 | 0.00 | 0.00 | 0.00 | 60 | 1010.0 |
| 20260505071140 | 57 | 342 | 0.0 | 0.0 | 0.00 | 0.00 | 0.00 | 60 | 1010.0 |
| 20260505070844 | 57 | 342 | 0.0 | 0.0 | 0.00 | 0.00 | 0.00 | 59 | 1010.0 |
| 20260505070533 | 57 | 342 | 0.0 | 0.0 | 0.00 | 0.00 | 0.00 | 59 | 1010.1 |
| 20260505070220 | 57 | 345 | 0.0 | 0.0 | 0.00 | 0.00 | 0.00 | 59 | 1010.1 |
| 20260505065912 | 57 | 286 | 0.0 | 0.0 | 0.00 | 0.00 | 0.00 | 59 | 1010.2 |
| 20260505065147 | 58 | 275 | 0.0 | 0.0 | 0.00 | 0.00 | 0.00 | 59 | 1010.1 |
| 20260505064845 | 58 | 275 | 0.0 | 0.0 | 0.00 | 0.00 | 0.00 | 59 | 1010.2 |
| 20260505064536 | 58 | 275 | 0.0 | 0.0 | 0.00 | 0.00 | 0.00 | 58 | 1010.2 |
| 20260505064224 | 58 | 275 | 0.0 | 0.0 | 0.00 | 0.00 | 0.00 | 58 | 1010.2 |
| 20260505063918 | 58 | 284 | 0.0 | 0.0 | 0.00 | 0.00 | 0.00 | 58 | 1010.2 |
| 20260505063612 | 58 | 284 | 0.0 | 0.0 | 0.00 | 0.00 | 0.00 | 58 | 1010.2 |
| 20260505062851 | 58 | 313 | 0.0 | 0.0 | 0.00 | 0.00 | 0.00 | 58 | 1010.3 |
| 20260505062546 | 58 | 313 | 0.0 | 0.0 | 0.00 | 0.00 | 0.00 | 58 | 1010.3 |
| 20260505062236 | 58 | 313 | 0.0 | 0.0 | 0.00 | 0.00 | 0.00 | 58 | 1010.2 |
| 20260505061519 | 58 | 306 | 0.0 | 0.0 | 0.00 | 0.00 | 0.00 | 58 | 1010.4 |
| 20260505061206 | 58 | 306 | 0.0 | 0.0 | 0.00 | 0.00 | 0.00 | 57 | 1010.3 |
| 20260505060902 | 58 | 306 | 0.0 | 0.0 | 0.00 | 0.00 | 0.00 | 57 | 1010.3 |
| 20260505060552 | 58 | 306 | 0.0 | 0.0 | 0.00 | 0.00 | 0.00 | 57 | 1010.5 |
| 20260505060248 | 58 | 306 | 0.0 | 0.0 | 0.00 | 0.00 | 0.00 | 57 | 1010.4 |
| 20260505055951 | 58 | 306 | 0.0 | 0.0 | 0.00 | 0.00 | 0.00 | 56 | 1010.5 |
| 20260505055642 | 58 | 315 | 0.0 | 0.0 | 0.00 | 0.00 | 0.00 | 56 | 1010.5 |
| 20260505055333 | 58 | 315 | 0.0 | 0.0 | 0.00 | 0.00 | 0.00 | 56 | 1010.5 |
| 20260505055034 | 58 | 315 | 0.0 | 0.0 | 0.00 | 0.00 | 0.00 | 56 | 1010.5 |
| 20260505054730 | 59 | 315 | 0.0 | 0.0 | 0.00 | 0.00 | 0.00 | 56 | 1010.4 |
| 20260505054420 | 58 | 315 | 0.0 | 0.0 | 0.00 | 0.00 | 0.00 | 56 | 1010.4 |
| 20260505054117 | 58 | 315 | 0.0 | 0.0 | 0.00 | 0.00 | 0.00 | 56 | 1010.3 |
| 20260505053811 | 58 | 315 | 0.0 | 0.0 | 0.00 | 0.00 | 0.00 | 56 | 1010.5 |
| 20260505053506 | 59 | 315 | 0.0 | 0.0 | 0.00 | 0.00 | 0.00 | 56 | 1010.3 |
| 20260505053201 | 59 | 315 | 0.0 | 0.0 | 0.00 | 0.00 | 0.00 | 56 | 1010.3 |
| 20260505052849 | 59 | 315 | 0.0 | 0.0 | 0.00 | 0.00 | 0.00 | 56 | 1010.2 |
| 20260505052549 | 59 | 315 | 0.0 | 0.0 | 0.00 | 0.00 | 0.00 | 56 | 1010.2 |
| 20260505052247 | 59 | 315 | 0.0 | 0.0 | 0.00 | 0.00 | 0.00 | 55 | 1010.2 |
| 20260505051948 | 59 | 315 | 0.0 | 0.0 | 0.00 | 0.00 | 0.00 | 55 | 1010.1 |
| 20260505051222 | 59 | 315 | 0.0 | 0.0 | 0.00 | 0.00 | 0.00 | 55 | 1010.2 |
| 20260505050909 | 59 | 315 | 0.0 | 0.0 | 0.00 | 0.00 | 0.00 | 54 | 1010.2 |
| 20260505050604 | 59 | 315 | 0.0 | 0.0 | 0.00 | 0.00 | 0.00 | 54 | 1010.2 |
| 20260505050304 | 59 | 315 | 0.0 | 0.0 | 0.00 | 0.00 | 0.00 | 54 | 1010.2 |
| 20260505041521 | 59 | 288 | 0.0 | 0.0 | 0.00 | 0.00 | 0.00 | 52 | 1009.9 |
| 20260505041222 | 59 | 288 | 0.0 | 1.0 | 0.00 | 0.00 | 0.00 | 52 | 1009.9 |
| 20260505040513 | 59 | 288 | 0.0 | 0.0 | 0.00 | 0.00 | 0.00 | 52 | 1009.9 |
| 20260505040209 | 59 | 288 | 0.0 | 0.0 | 0.00 | 0.00 | 0.00 | 52 | 1009.8 |
| 20260505035910 | 59 | 288 | 0.0 | 0.0 | 0.00 | 0.00 | 0.00 | 51 | 1009.8 |
| 20260505035605 | 59 | 288 | 0.0 | 0.0 | 0.00 | 0.00 | 0.00 | 52 | 1009.7 |
| 20260505035304 | 59 | 288 | 0.0 | 0.0 | 0.00 | 0.00 | 0.00 | 51 | 1009.7 |
| 20260505033729 | 60 | 288 | 0.0 | 0.0 | 0.00 | 0.00 | 0.00 | 50 | 1009.8 |
| 20260505033417 | 60 | 288 | 0.0 | 0.0 | 0.00 | 0.00 | 0.00 | 49 | 1009.8 |
| 20260505032642 | 60 | 288 | 0.0 | 0.0 | 0.00 | 0.00 | 0.00 | 48 | 1009.8 |
| 20260505032340 | 61 | 288 | 0.0 | 0.0 | 0.00 | 0.00 | 0.00 | 47 | 1009.7 |
| 20260505032035 | 61 | 288 | 0.0 | 0.0 | 0.00 | 0.00 | 0.00 | 47 | 1009.7 |
| 20260505031739 | 61 | 288 | 0.0 | 0.0 | 0.00 | 0.00 | 0.00 | 47 | 1009.8 |
| 20260505031426 | 61 | 288 | 0.0 | 0.0 | 0.00 | 0.00 | 0.00 | 46 | 1009.8 |
| 20260505031114 | 62 | 289 | 0.0 | 0.0 | 0.00 | 0.00 | 0.00 | 46 | 1009.7 |
| 20260505030802 | 62 | 289 | 0.0 | 0.0 | 0.00 | 0.00 | 0.00 | 45 | 1009.8 |
| 20260505030505 | 62 | 289 | 0.0 | 0.0 | 0.00 | 0.00 | 0.00 | 45 | 1009.8 |
| 20260505030157 | 62 | 289 | 0.0 | 0.0 | 0.00 | 0.00 | 0.00 | 44 | 1009.8 |
| 20260505025854 | 62 | 289 | 0.0 | 0.0 | 0.00 | 0.00 | 0.00 | 44 | 1009.8 |
| 20260505025137 | 63 | 298 | 0.0 | 0.0 | 0.00 | 0.00 | 0.00 | 43 | 1009.8 |
| 20260505024419 | 64 | 298 | 0.0 | 1.0 | 0.00 | 0.00 | 0.00 | 42 | 1009.8 |
| 20260505024115 | 64 | 298 | 0.0 | 1.0 | 0.00 | 0.00 | 0.00 | 42 | 1009.7 |
| 20260505023356 | 64 | 294 | 0.0 | 1.0 | 0.00 | 0.00 | 0.00 | 41 | 1009.7 |
| 20260505022637 | 65 | 240 | 0.0 | 2.0 | 0.00 | 0.00 | 0.00 | 40 | 1009.7 |
| 20260505022329 | 65 | 230 | 0.0 | 2.0 | 0.00 | 0.00 | 0.00 | 39 | 1009.7 |
| 20260505022020 | 66 | 230 | 0.0 | 2.0 | 0.00 | 0.00 | 0.00 | 38 | 1009.7 |
| 20260505021723 | 66 | 222 | 0.0 | 2.0 | 0.00 | 0.00 | 0.00 | 37 | 1009.6 |
| 20260505021423 | 66 | 220 | 0.0 | 1.0 | 0.00 | 0.00 | 0.00 | 37 | 1009.5 |
| 20260505021118 | 67 | 161 | 0.0 | 0.0 | 0.00 | 0.00 | 0.00 | 37 | 1009.4 |
| 20260505020815 | 67 | 163 | 0.0 | 0.0 | 0.00 | 0.00 | 0.00 | 36 | 1009.5 |
| 20260505020511 | 67 | 221 | 0.0 | 0.0 | 0.00 | 0.00 | 0.00 | 36 | 1009.6 |
| 20260505020212 | 67 | 221 | 0.0 | 6.0 | 0.00 | 0.00 | 0.00 | 35 | 1009.7 |
| 20260505015915 | 68 | 195 | 0.0 | 6.0 | 0.00 | 0.00 | 0.00 | 35 | 1009.7 |
| 20260505015610 | 68 | 190 | 1.0 | 8.0 | 0.00 | 0.00 | 0.00 | 35 | 1009.6 |
| 20260505015313 | 68 | 223 | 2.0 | 8.0 | 0.00 | 0.00 | 0.00 | 35 | 1009.7 |
| 20260505014542 | 68 | 200 | 0.0 | 11.0 | 0.00 | 0.00 | 0.00 | 34 | 1009.5 |
| 20260505014238 | 68 | 238 | 0.0 | 11.0 | 0.00 | 0.00 | 0.00 | 34 | 1009.5 |
| 20260505013935 | 68 | 286 | 1.0 | 11.0 | 0.00 | 0.00 | 0.00 | 34 | 1009.6 |
| 20260505013202 | 68 | 279 | 2.0 | 7.0 | 0.00 | 0.00 | 0.00 | 34 | 1009.5 |
| 20260505012902 | 68 | 218 | 1.0 | 7.0 | 0.00 | 0.00 | 0.00 | 34 | 1009.5 |
| 20260505012551 | 68 | 140 | 2.0 | 0.0 | 0.00 | 0.00 | 0.00 | 34 | 1009.4 |
| 20260505011821 | 68 | 246 | 3.0 | 13.0 | 0.00 | 0.00 | 0.00 | 34 | 1009.2 |
| 20260505011515 | 68 | 194 | 3.0 | 13.0 | 0.00 | 0.00 | 0.00 | 34 | 1009.1 |
| 20260505010749 | 68 | 140 | 3.0 | 13.0 | 0.00 | 0.00 | 0.00 | 34 | 1009.0 |
| 20260505010448 | 68 | 153 | 3.0 | 9.0 | 0.00 | 0.00 | 0.00 | 35 | 1009.0 |
| 20260505010145 | 68 | 198 | 2.0 | 9.0 | 0.00 | 0.00 | 0.00 | 34 | 1009.1 |
| 20260505005848 | 68 | 212 | 2.0 | 9.0 | 0.00 | 0.00 | 0.00 | 35 | 1009.1 |
| 20260505005538 | 68 | 207 | 2.0 | 9.0 | 0.00 | 0.00 | 0.00 | 35 | 1009.1 |
| 20260505005233 | 68 | 207 | 2.0 | 9.0 | 0.00 | 0.00 | 0.00 | 35 | 1009.2 |
| 20260505004921 | 68 | 208 | 2.0 | 9.0 | 0.00 | 0.00 | 0.00 | 34 | 1009.0 |
| 20260505004614 | 68 | 174 | 2.0 | 9.0 | 0.00 | 0.00 | 0.00 | 34 | 1009.0 |
| 20260505004312 | 68 | 154 | 1.0 | 9.0 | 0.00 | 0.00 | 0.00 | 34 | 1009.0 |
| 20260505004014 | 68 | 128 | 2.0 | 9.0 | 0.00 | 0.00 | 0.00 | 34 | 1008.9 |
| 20260505003700 | 68 | 87 | 2.0 | 9.0 | 0.00 | 0.00 | 0.00 | 34 | 1008.7 |
| 20260505003359 | 69 | 83 | 2.0 | 9.0 | 0.00 | 0.00 | 0.00 | 33 | 1008.8 |
| 20260505002643 | 69 | 132 | 2.0 | 8.0 | 0.00 | 0.00 | 0.00 | 33 | 1008.8 |
| 20260505002343 | 69 | 208 | 2.0 | 8.0 | 0.00 | 0.00 | 0.00 | 34 | 1008.8 |
| 20260505002047 | 69 | 193 | 2.0 | 7.0 | 0.00 | 0.00 | 0.00 | 33 | 1008.8 |
| 20260505001312 | 69 | 173 | 1.0 | 11.0 | 0.00 | 0.00 | 0.00 | 32 | 1008.8 |
| 20260505001009 | 69 | 122 | 1.0 | 11.0 | 0.00 | 0.00 | 0.00 | 32 | 1008.7 |
| 20260505000242 | 70 | 200 | 2.0 | 11.0 | 0.00 | 0.00 | 0.00 | 33 | 1008.8 |
| 20260504235944 | 70 | 269 | 2.0 | 11.0 | 0.00 | 0.00 | 0.00 | 33 | 1008.8 |
| 20260504235218 | 70 | 192 | 2.0 | 8.0 | 0.00 | 0.00 | 0.00 | 31 | 1008.7 |
| 20260504234922 | 70 | 200 | 2.0 | 11.0 | 0.00 | 0.00 | 0.00 | 31 | 1008.8 |
| 20260504234624 | 70 | 265 | 2.0 | 11.0 | 0.00 | 0.00 | 0.00 | 32 | 1008.7 |
| 20260504234311 | 71 | 136 | 2.0 | 11.0 | 0.00 | 0.00 | 0.00 | 32 | 1008.7 |
| 20260504233958 | 71 | 185 | 2.0 | 11.0 | 0.00 | 0.00 | 0.00 | 31 | 1008.7 |
| 20260504233657 | 71 | 183 | 2.0 | 11.0 | 0.00 | 0.00 | 0.00 | 31 | 1008.6 |
| 20260504233354 | 71 | 169 | 2.0 | 11.0 | 0.00 | 0.00 | 0.00 | 32 | 1008.6 |
| 20260504233041 | 71 | 185 | 2.0 | 11.0 | 0.00 | 0.00 | 0.00 | 30 | 1008.6 |
| 20260504232739 | 71 | 126 | 2.0 | 7.0 | 0.00 | 0.00 | 0.00 | 31 | 1008.6 |
| 20260504232437 | 71 | 156 | 2.0 | 7.0 | 0.00 | 0.00 | 0.00 | 30 | 1008.6 |
| 20260504232135 | 71 | 158 | 1.0 | 7.0 | 0.00 | 0.00 | 0.00 | 30 | 1008.6 |
| 20260504231831 | 72 | 45 | 2.0 | 9.0 | 0.00 | 0.00 | 0.00 | 30 | 1008.6 |
| 20260504231520 | 72 | 232 | 2.0 | 9.0 | 0.00 | 0.00 | 0.00 | 32 | 1008.6 |
| 20260504231219 | 72 | 217 | 2.0 | 9.0 | 0.00 | 0.00 | 0.00 | 31 | 1008.6 |
| 20260504230916 | 72 | 194 | 2.0 | 14.0 | 0.00 | 0.00 | 0.00 | 30 | 1008.6 |
| 20260504230608 | 72 | 123 | 2.0 | 14.0 | 0.00 | 0.00 | 0.00 | 31 | 1008.6 |
| 20260504230304 | 72 | 238 | 2.0 | 14.0 | 0.00 | 0.00 | 0.00 | 29 | 1008.7 |
| 20260504225959 | 72 | 134 | 3.0 | 14.0 | 0.00 | 0.00 | 0.00 | 29 | 1008.7 |
| 20260504225657 | 72 | 270 | 3.0 | 14.0 | 0.00 | 0.00 | 0.00 | 29 | 1008.8 |
| 20260504225344 | 73 | 191 | 3.0 | 14.0 | 0.00 | 0.00 | 0.00 | 29 | 1008.8 |
| 20260504225045 | 73 | 138 | 3.0 | 14.0 | 0.00 | 0.00 | 0.00 | 27 | 1008.9 |
| 20260504224731 | 73 | 140 | 2.0 | 9.0 | 0.00 | 0.00 | 0.00 | 28 | 1009.0 |